,,,PA_Meas_PMT16A,,PR_Meas_QMR101_102,,RH_Meas_QMH101,,SR_Meas_QMS101,,TA_Meas_QMH101,,GenWind,,GenWind,
date,time,status,PA,status,PR,status,RH,status,SR,status,TA,status,DirAvg,status,SpdAvg,
2011-07-28, 00:00:04,VALID,1009.78,VALID,0.0,VALID,98.075,VALID,0.0,VALID,24.707,VALID,166.0,VALID,0.335,
2011-07-28, 00:01:04,VALID,1009.763,VALID,0.0,VALID,98.243,VALID,0.0,VALID,24.727,VALID,194.0,VALID,0.752,
2011-07-28, 00:02:04,VALID,1009.766,VALID,0.0,VALID,98.204,VALID,0.0,VALID,24.727,VALID,194.0,VALID,0.388,
2011-07-28, 00:03:04,VALID,1009.77,VALID,0.0,VALID,98.075,VALID,0.0,VALID,24.746,VALID,195.0,VALID,0.393,
2011-07-28, 00:04:04,VALID,1009.777,VALID,0.0,VALID,97.999,VALID,0.0,VALID,24.768,VALID,197.0,VALID,0.43,
2011-07-28, 00:05:04,VALID,1009.793,VALID,0.0,VALID,97.953,VALID,0.0,VALID,24.746,VALID,197.0,VALID,0.328,
2011-07-28, 00:06:04,VALID,1009.779,VALID,0.0,VALID,98.029,VALID,0.0,VALID,24.746,VALID,194.0,VALID,0.483,
2011-07-28, 00:07:04,VALID,1009.77,VALID,0.0,VALID,98.052,VALID,0.0,VALID,24.785,VALID,199.0,VALID,1.157,
2011-07-28, 00:08:04,VALID,1009.747,VALID,0.0,VALID,97.755,VALID,0.0,VALID,24.824,VALID,207.0,VALID,1.175,
2011-07-28, 00:09:04,VALID,1009.747,VALID,0.0,VALID,97.205,VALID,0.0,VALID,24.865,VALID,191.0,VALID,0.204,
2011-07-28, 00:10:04,VALID,1009.754,VALID,0.0,VALID,97.144,VALID,0.0,VALID,24.824,VALID,191.0,VALID,0.487,
2011-07-28, 00:11:04,VALID,1009.707,VALID,0.0,VALID,96.916,VALID,0.0,VALID,24.824,VALID,153.0,VALID,0.167,
2011-07-28, 00:12:04,VALID,1009.735,VALID,0.0,VALID,96.923,VALID,0.0,VALID,24.805,VALID,153.0,VALID,0.329,
2011-07-28, 00:13:04,VALID,1009.74,VALID,0.0,VALID,97.35,VALID,0.0,VALID,24.805,VALID,220.0,VALID,0.644,
2011-07-28, 00:14:04,VALID,1009.71,VALID,0.0,VALID,97.32,VALID,0.0,VALID,24.805,VALID,202.0,VALID,0.768,
2011-07-28, 00:15:04,VALID,1009.716,VALID,0.0,VALID,97.167,VALID,0.0,VALID,24.863,VALID,185.0,VALID,1.242,
2011-07-28, 00:16:04,VALID,1009.682,VALID,0.0,VALID,96.534,VALID,0.0,VALID,24.941,VALID,199.0,VALID,0.744,
2011-07-28, 00:17:04,VALID,1009.68,VALID,0.0,VALID,95.894,VALID,0.0,VALID,24.961,VALID,245.0,VALID,0.643,
2011-07-28, 00:18:04,VALID,1009.64,VALID,0.0,VALID,94.758,VALID,0.0,VALID,24.98,VALID,182.0,VALID,0.604,
2011-07-28, 00:19:04,VALID,1009.643,VALID,0.0,VALID,93.721,VALID,0.0,VALID,24.961,VALID,183.0,VALID,0.654,
2011-07-28, 00:20:04,VALID,1009.606,VALID,0.0,VALID,93.858,VALID,0.0,VALID,24.941,VALID,196.0,VALID,1.005,
2011-07-28, 00:21:04,VALID,1009.612,VALID,0.0,VALID,94.125,VALID,0.0,VALID,24.922,VALID,171.0,VALID,0.745,
2011-07-28, 00:22:04,VALID,1009.602,VALID,0.0,VALID,93.873,VALID,0.0,VALID,24.922,VALID,197.0,VALID,0.49,
2011-07-28, 00:23:04,VALID,1009.586,VALID,0.0,VALID,94.369,VALID,0.0,VALID,24.902,VALID,192.0,VALID,0.484,
2011-07-28, 00:24:04,VALID,1009.581,VALID,0.0,VALID,94.735,VALID,0.0,VALID,24.902,VALID,199.0,VALID,0.581,
2011-07-28, 00:25:04,VALID,1009.592,VALID,0.0,VALID,94.826,VALID,0.0,VALID,24.902,VALID,182.0,VALID,1.58,
2011-07-28, 00:26:04,VALID,1009.563,VALID,0.0,VALID,94.125,VALID,0.0,VALID,24.922,VALID,185.0,VALID,0.927,
2011-07-28, 00:27:04,VALID,1009.547,VALID,0.0,VALID,93.698,VALID,0.0,VALID,24.922,VALID,195.0,VALID,1.129,
2011-07-28, 00:28:04,VALID,1009.544,VALID,0.0,VALID,93.675,VALID,0.0,VALID,24.883,VALID,180.0,VALID,1.051,
2011-07-28, 00:29:04,VALID,1009.536,VALID,0.0,VALID,94.102,VALID,0.0,VALID,24.883,VALID,192.0,VALID,0.755,
2011-07-28, 00:30:04,VALID,1009.507,VALID,0.0,VALID,94.575,VALID,0.0,VALID,24.904,VALID,188.0,VALID,0.787,
2011-07-28, 00:31:04,VALID,1009.517,VALID,0.0,VALID,94.437,VALID,0.0,VALID,24.863,VALID,188.0,VALID,0.643,
2011-07-28, 00:32:04,VALID,1009.516,VALID,0.0,VALID,94.819,VALID,0.0,VALID,24.844,VALID,174.0,VALID,0.893,
2011-07-28, 00:33:04,VALID,1009.506,VALID,0.0,VALID,95.291,VALID,0.0,VALID,24.846,VALID,183.0,VALID,0.554,
2011-07-28, 00:34:04,VALID,1009.502,VALID,0.0,VALID,95.596,VALID,0.0,VALID,24.824,VALID,171.0,VALID,0.728,
2011-07-28, 00:35:04,VALID,1009.485,VALID,0.0,VALID,95.947,VALID,0.0,VALID,24.785,VALID,182.0,VALID,0.746,
2011-07-28, 00:36:04,VALID,1009.502,VALID,0.0,VALID,96.115,VALID,0.0,VALID,24.785,VALID,181.0,VALID,0.766,
2011-07-28, 00:37:04,VALID,1009.476,VALID,0.0,VALID,96.451,VALID,0.0,VALID,24.746,VALID,186.0,VALID,0.866,
2011-07-28, 00:38:04,VALID,1009.471,VALID,0.0,VALID,96.862,VALID,0.0,VALID,24.707,VALID,191.0,VALID,0.504,
2011-07-28, 00:39:04,VALID,1009.398,VALID,0.0,VALID,97.183,VALID,0.0,VALID,24.649,VALID,190.0,VALID,0.745,
2011-07-28, 00:40:04,VALID,1009.413,VALID,0.0,VALID,97.366,VALID,0.0,VALID,24.629,VALID,170.0,VALID,0.968,
2011-07-28, 00:41:04,VALID,1009.345,VALID,0.0,VALID,97.877,VALID,0.0,VALID,24.61,VALID,186.0,VALID,0.796,
2011-07-28, 00:42:04,VALID,1009.295,VALID,0.0,VALID,98.204,VALID,0.0,VALID,24.59,VALID,168.0,VALID,1.116,
2011-07-28, 00:43:04,VALID,1009.294,VALID,0.0,VALID,98.357,VALID,0.0,VALID,24.61,VALID,170.0,VALID,0.915,
2011-07-28, 00:44:04,VALID,1009.301,VALID,0.0,VALID,98.288,VALID,0.0,VALID,24.59,VALID,180.0,VALID,0.572,
2011-07-28, 00:45:04,VALID,1009.31,VALID,0.0,VALID,98.494,VALID,0.0,VALID,24.551,VALID,165.0,VALID,0.773,
2011-07-28, 00:46:04,VALID,1009.287,VALID,0.0,VALID,98.624,VALID,0.0,VALID,24.512,VALID,166.0,VALID,0.556,
2011-07-28, 00:47:04,VALID,1009.276,VALID,0.0,VALID,98.898,VALID,0.0,VALID,24.512,VALID,177.0,VALID,0.801,
2011-07-28, 00:48:04,VALID,1009.267,VALID,0.0,VALID,98.99,VALID,0.0,VALID,24.493,VALID,176.0,VALID,0.836,
2011-07-28, 00:49:04,VALID,1009.275,VALID,0.0,VALID,99.043,VALID,0.0,VALID,24.474,VALID,171.0,VALID,0.584,
2011-07-28, 00:50:04,VALID,1009.249,VALID,0.0,VALID,99.249,VALID,0.0,VALID,24.454,VALID,174.0,VALID,0.782,
2011-07-28, 00:51:04,VALID,1009.218,VALID,0.0,VALID,99.226,VALID,0.0,VALID,24.435,VALID,162.0,VALID,0.736,
2011-07-28, 00:52:04,VALID,1009.189,VALID,0.0,VALID,99.569,VALID,0.0,VALID,24.415,VALID,201.0,VALID,0.887,
2011-07-28, 00:53:04,VALID,1009.182,VALID,0.0,VALID,99.577,VALID,0.0,VALID,24.436,VALID,170.0,VALID,0.721,
2011-07-28, 00:54:04,VALID,1009.198,VALID,0.0,VALID,99.699,VALID,0.0,VALID,24.394,VALID,184.0,VALID,0.696,
2011-07-28, 00:55:04,VALID,1009.158,VALID,0.0,VALID,99.669,VALID,0.0,VALID,24.415,VALID,186.0,VALID,0.629,
2011-07-28, 00:56:04,VALID,1009.183,VALID,0.0,VALID,99.608,VALID,0.0,VALID,24.415,VALID,185.0,VALID,0.552,
2011-07-28, 00:57:04,VALID,1009.195,VALID,0.0,VALID,99.714,VALID,0.0,VALID,24.415,VALID,188.0,VALID,0.904,
2011-07-28, 00:58:04,VALID,1009.188,VALID,0.0,VALID,99.707,VALID,0.0,VALID,24.435,VALID,186.0,VALID,0.695,
2011-07-28, 00:59:04,VALID,1009.184,VALID,0.0,VALID,99.501,VALID,0.0,VALID,24.436,VALID,185.0,VALID,0.267,
2011-07-28, 01:00:04,VALID,1009.184,VALID,0.0,VALID,99.569,VALID,0.0,VALID,24.376,VALID,185.0,VALID,0.279,
2011-07-28, 01:01:04,VALID,1009.181,VALID,0.0,VALID,99.752,VALID,0.0,VALID,24.335,VALID,185.0,VALID,0.5,
2011-07-28, 01:02:04,VALID,1009.172,VALID,0.0,VALID,99.951,VALID,0.0,VALID,24.357,VALID,185.0,VALID,0.467,
2011-07-28, 01:03:04,VALID,1009.187,VALID,0.0,VALID,100.103,VALID,0.0,VALID,24.376,VALID,191.0,VALID,0.761,
2011-07-28, 01:04:04,VALID,1009.177,VALID,0.0,VALID,100.088,VALID,0.0,VALID,24.376,VALID,213.0,VALID,0.417,
2011-07-28, 01:05:04,VALID,1009.186,VALID,0.0,VALID,100.05,VALID,0.0,VALID,24.376,VALID,213.0,VALID,0.255,
2011-07-28, 01:06:04,VALID,1009.202,VALID,0.0,VALID,100.027,VALID,0.0,VALID,24.376,VALID,212.0,VALID,0.215,
2011-07-28, 01:07:04,VALID,1009.186,VALID,0.0,VALID,100.027,VALID,0.0,VALID,24.396,VALID,212.0,VALID,0.0,
2011-07-28, 01:08:04,VALID,1009.21,VALID,0.0,VALID,100.019,VALID,0.0,VALID,24.376,VALID,212.0,VALID,0.13,
2011-07-28, 01:09:04,VALID,1009.208,VALID,0.0,VALID,100.111,VALID,0.0,VALID,24.376,VALID,212.0,VALID,0.355,
2011-07-28, 01:10:04,VALID,1009.19,VALID,0.0,VALID,100.065,VALID,0.0,VALID,24.357,VALID,212.0,VALID,0.146,
2011-07-28, 01:11:04,VALID,1009.158,VALID,0.0,VALID,100.05,VALID,0.0,VALID,24.337,VALID,212.0,VALID,0.305,
2011-07-28, 01:12:04,VALID,1009.149,VALID,0.0,VALID,100.149,VALID,0.0,VALID,24.318,VALID,212.0,VALID,0.234,
2011-07-28, 01:13:04,VALID,1009.155,VALID,0.0,VALID,100.256,VALID,0.0,VALID,24.318,VALID,212.0,VALID,0.403,
2011-07-28, 01:14:04,VALID,1009.129,VALID,0.0,VALID,100.218,VALID,0.0,VALID,24.298,VALID,212.0,VALID,0.322,
2011-07-28, 01:15:04,VALID,1009.11,VALID,0.0,VALID,100.218,VALID,0.0,VALID,24.279,VALID,212.0,VALID,0.398,
2011-07-28, 01:16:04,VALID,1009.098,VALID,0.0,VALID,100.34,VALID,0.0,VALID,24.259,VALID,212.0,VALID,0.289,
2011-07-28, 01:17:04,VALID,1009.107,VALID,0.0,VALID,100.416,VALID,0.0,VALID,24.24,VALID,212.0,VALID,0.1,
2011-07-28, 01:18:04,VALID,1009.117,VALID,0.0,VALID,100.286,VALID,0.0,VALID,24.201,VALID,212.0,VALID,0.0,
2011-07-28, 01:19:04,VALID,1009.151,VALID,0.0,VALID,100.164,VALID,0.0,VALID,24.162,VALID,212.0,VALID,0.0,
2011-07-28, 01:20:04,VALID,1009.173,VALID,0.0,VALID,100.546,VALID,0.0,VALID,24.142,VALID,212.0,VALID,0.0,
2011-07-28, 01:21:04,VALID,1009.149,VALID,0.0,VALID,100.896,VALID,0.0,VALID,24.103,VALID,212.0,VALID,0.0,
2011-07-28, 01:22:04,VALID,1009.132,VALID,0.0,VALID,101.156,VALID,0.0,VALID,24.064,VALID,212.0,VALID,0.0,
2011-07-28, 01:23:04,VALID,1009.125,VALID,0.0,VALID,101.377,VALID,0.0,VALID,24.045,VALID,212.0,VALID,0.0,
2011-07-28, 01:24:04,VALID,1009.136,VALID,0.0,VALID,101.476,VALID,0.0,VALID,24.025,VALID,212.0,VALID,0.0,
2011-07-28, 01:25:04,VALID,1009.146,VALID,0.0,VALID,101.232,VALID,0.0,VALID,23.967,VALID,211.0,VALID,0.0,
2011-07-28, 01:26:04,VALID,1009.119,VALID,0.0,VALID,101.095,VALID,0.0,VALID,23.907,VALID,212.0,VALID,0.0,
2011-07-28, 01:27:04,VALID,1009.142,VALID,0.0,VALID,101.186,VALID,0.0,VALID,23.889,VALID,212.0,VALID,0.0,
2011-07-28, 01:28:04,VALID,1009.138,VALID,0.0,VALID,101.369,VALID,0.0,VALID,23.85,VALID,212.0,VALID,0.0,
2011-07-28, 01:29:04,VALID,1009.132,VALID,0.0,VALID,101.857,VALID,0.0,VALID,23.85,VALID,212.0,VALID,0.0,
2011-07-28, 01:30:04,VALID,1009.141,VALID,0.0,VALID,102.078,VALID,0.0,VALID,23.85,VALID,212.0,VALID,0.0,
2011-07-28, 01:31:04,VALID,1009.132,VALID,0.0,VALID,102.078,VALID,0.0,VALID,23.832,VALID,212.0,VALID,0.33,
2011-07-28, 01:32:04,VALID,1009.148,VALID,0.0,VALID,102.132,VALID,0.0,VALID,23.733,VALID,212.0,VALID,0.006,
2011-07-28, 01:33:04,VALID,1009.152,VALID,0.0,VALID,102.208,VALID,0.0,VALID,23.713,VALID,212.0,VALID,0.193,
2011-07-28, 01:34:04,VALID,1009.153,VALID,0.0,VALID,102.261,VALID,0.0,VALID,23.636,VALID,212.0,VALID,0.0,
2011-07-28, 01:35:04,VALID,1009.137,VALID,0.0,VALID,102.322,VALID,0.0,VALID,23.616,VALID,212.0,VALID,0.0,
2011-07-28, 01:36:04,VALID,1009.109,VALID,0.0,VALID,102.46,VALID,0.0,VALID,23.597,VALID,212.0,VALID,0.0,
2011-07-28, 01:37:04,VALID,1009.117,VALID,0.0,VALID,102.49,VALID,0.0,VALID,23.538,VALID,212.0,VALID,0.0,
2011-07-28, 01:38:04,VALID,1009.108,VALID,0.0,VALID,102.444,VALID,0.0,VALID,23.499,VALID,212.0,VALID,0.087,
2011-07-28, 01:39:04,VALID,1009.093,VALID,0.0,VALID,102.49,VALID,0.0,VALID,23.441,VALID,211.0,VALID,0.061,
2011-07-28, 01:40:04,VALID,1009.069,VALID,0.0,VALID,102.917,VALID,0.0,VALID,23.48,VALID,201.0,VALID,0.115,
2011-07-28, 01:41:04,VALID,1009.095,VALID,0.0,VALID,103.054,VALID,0.0,VALID,23.48,VALID,201.0,VALID,0.0,
2011-07-28, 01:42:04,VALID,1009.086,VALID,0.0,VALID,102.955,VALID,0.0,VALID,23.441,VALID,201.0,VALID,0.0,
2011-07-28, 01:43:04,VALID,1009.064,VALID,0.0,VALID,103.039,VALID,0.0,VALID,23.441,VALID,199.0,VALID,0.302,
2011-07-28, 01:44:04,VALID,1009.048,VALID,0.0,VALID,103.298,VALID,0.0,VALID,23.46,VALID,190.0,VALID,0.116,
2011-07-28, 01:45:04,VALID,1009.062,VALID,0.0,VALID,103.558,VALID,0.0,VALID,23.538,VALID,181.0,VALID,0.589,
2011-07-28, 01:46:04,VALID,1009.046,VALID,0.0,VALID,103.664,VALID,0.0,VALID,23.597,VALID,181.0,VALID,0.605,
2011-07-28, 01:47:04,VALID,1009.027,VALID,0.0,VALID,103.68,VALID,0.0,VALID,23.655,VALID,172.0,VALID,0.529,
2011-07-28, 01:48:04,VALID,1009.006,VALID,0.0,VALID,103.611,VALID,0.0,VALID,23.694,VALID,182.0,VALID,0.736,
2011-07-28, 01:49:04,VALID,1008.996,VALID,0.0,VALID,103.451,VALID,0.0,VALID,23.752,VALID,179.0,VALID,0.917,
2011-07-28, 01:50:04,VALID,1008.987,VALID,0.0,VALID,103.26,VALID,0.0,VALID,23.811,VALID,176.0,VALID,0.604,
2011-07-28, 01:51:04,VALID,1009.023,VALID,0.0,VALID,102.978,VALID,0.0,VALID,23.85,VALID,205.0,VALID,0.621,
2011-07-28, 01:52:04,VALID,1008.972,VALID,0.0,VALID,102.521,VALID,0.0,VALID,23.889,VALID,187.0,VALID,0.544,
2011-07-28, 01:53:04,VALID,1008.995,VALID,0.0,VALID,102.338,VALID,0.0,VALID,23.926,VALID,185.0,VALID,0.621,
2011-07-28, 01:54:04,VALID,1008.967,VALID,0.0,VALID,102.2,VALID,0.106,VALID,24.025,VALID,183.0,VALID,0.509,
2011-07-28, 01:55:04,VALID,1009.018,VALID,0.0,VALID,101.857,VALID,0.0,VALID,24.084,VALID,197.0,VALID,0.416,
2011-07-28, 01:56:04,VALID,1008.965,VALID,0.0,VALID,101.453,VALID,0.0,VALID,24.123,VALID,189.0,VALID,0.953,
2011-07-28, 01:57:04,VALID,1008.95,VALID,0.0,VALID,101.095,VALID,0.0,VALID,24.121,VALID,180.0,VALID,0.781,
2011-07-28, 01:58:04,VALID,1008.983,VALID,0.0,VALID,101.064,VALID,0.0,VALID,24.201,VALID,182.0,VALID,0.886,
2011-07-28, 01:59:04,VALID,1008.95,VALID,0.0,VALID,100.675,VALID,0.0,VALID,24.22,VALID,182.0,VALID,0.429,
2011-07-28, 02:00:04,VALID,1008.952,VALID,0.0,VALID,100.561,VALID,0.0,VALID,24.22,VALID,190.0,VALID,0.557,
2011-07-28, 02:01:04,VALID,1008.963,VALID,0.0,VALID,100.591,VALID,0.0,VALID,24.279,VALID,179.0,VALID,0.648,
2011-07-28, 02:02:04,VALID,1008.977,VALID,0.0,VALID,100.317,VALID,0.0,VALID,24.296,VALID,168.0,VALID,0.68,
2011-07-28, 02:03:04,VALID,1008.991,VALID,0.0,VALID,99.958,VALID,0.106,VALID,24.337,VALID,168.0,VALID,0.264,
2011-07-28, 02:04:04,VALID,1008.947,VALID,0.0,VALID,99.874,VALID,0.106,VALID,24.337,VALID,168.0,VALID,0.517,
2011-07-28, 02:05:04,VALID,1008.952,VALID,0.0,VALID,99.89,VALID,0.106,VALID,24.337,VALID,171.0,VALID,0.623,
2011-07-28, 02:06:04,VALID,1008.908,VALID,0.0,VALID,99.638,VALID,0.0,VALID,24.337,VALID,171.0,VALID,0.361,
2011-07-28, 02:07:04,VALID,1008.893,VALID,0.0,VALID,99.768,VALID,0.106,VALID,24.318,VALID,190.0,VALID,0.459,
2011-07-28, 02:08:04,VALID,1008.884,VALID,0.0,VALID,99.775,VALID,0.0,VALID,24.279,VALID,175.0,VALID,0.538,
2011-07-28, 02:09:04,VALID,1008.873,VALID,0.0,VALID,99.943,VALID,0.0,VALID,24.279,VALID,177.0,VALID,1.077,
2011-07-28, 02:10:04,VALID,1008.87,VALID,0.0,VALID,99.928,VALID,0.0,VALID,24.298,VALID,174.0,VALID,1.347,
2011-07-28, 02:11:04,VALID,1008.843,VALID,0.0,VALID,99.89,VALID,0.0,VALID,24.337,VALID,175.0,VALID,1.104,
2011-07-28, 02:12:04,VALID,1008.847,VALID,0.0,VALID,99.737,VALID,0.0,VALID,24.357,VALID,164.0,VALID,0.894,
2011-07-28, 02:13:04,VALID,1008.8,VALID,0.0,VALID,99.501,VALID,0.106,VALID,24.357,VALID,160.0,VALID,0.64,
2011-07-28, 02:14:04,VALID,1008.801,VALID,0.0,VALID,99.623,VALID,0.106,VALID,24.337,VALID,178.0,VALID,0.903,
2011-07-28, 02:15:04,VALID,1008.833,VALID,0.0,VALID,99.653,VALID,0.106,VALID,24.357,VALID,163.0,VALID,0.91,
2011-07-28, 02:16:04,VALID,1008.818,VALID,0.0,VALID,99.661,VALID,0.0,VALID,24.396,VALID,155.0,VALID,0.676,
2011-07-28, 02:17:04,VALID,1008.814,VALID,0.0,VALID,99.539,VALID,0.0,VALID,24.415,VALID,183.0,VALID,1.182,
2011-07-28, 02:18:04,VALID,1008.807,VALID,0.0,VALID,99.409,VALID,0.106,VALID,24.435,VALID,147.0,VALID,0.583,
2011-07-28, 02:19:04,VALID,1008.82,VALID,0.0,VALID,99.264,VALID,0.106,VALID,24.452,VALID,161.0,VALID,0.66,
2011-07-28, 02:20:04,VALID,1008.794,VALID,0.0,VALID,99.188,VALID,0.106,VALID,24.433,VALID,164.0,VALID,0.839,
2011-07-28, 02:21:04,VALID,1008.789,VALID,0.0,VALID,99.12,VALID,0.106,VALID,24.415,VALID,178.0,VALID,0.812,
2011-07-28, 02:22:04,VALID,1008.782,VALID,0.0,VALID,99.234,VALID,0.106,VALID,24.435,VALID,172.0,VALID,1.001,
2011-07-28, 02:23:04,VALID,1008.801,VALID,0.0,VALID,99.318,VALID,0.106,VALID,24.454,VALID,180.0,VALID,1.463,
2011-07-28, 02:24:04,VALID,1008.824,VALID,0.0,VALID,99.249,VALID,0.0,VALID,24.474,VALID,149.0,VALID,0.878,
2011-07-28, 02:25:04,VALID,1008.83,VALID,0.0,VALID,99.165,VALID,0.0,VALID,24.433,VALID,174.0,VALID,1.059,
2011-07-28, 02:26:04,VALID,1008.847,VALID,0.0,VALID,99.158,VALID,0.0,VALID,24.475,VALID,180.0,VALID,0.581,
2011-07-28, 02:27:04,VALID,1008.819,VALID,0.0,VALID,99.051,VALID,0.106,VALID,24.454,VALID,168.0,VALID,0.527,
2011-07-28, 02:28:04,VALID,1008.778,VALID,0.0,VALID,99.112,VALID,0.0,VALID,24.413,VALID,180.0,VALID,0.614,
2011-07-28, 02:29:04,VALID,1008.787,VALID,0.0,VALID,99.234,VALID,0.106,VALID,24.415,VALID,159.0,VALID,0.795,
2011-07-28, 02:30:04,VALID,1008.744,VALID,0.0,VALID,99.447,VALID,0.0,VALID,24.415,VALID,163.0,VALID,1.168,
2011-07-28, 02:31:04,VALID,1008.756,VALID,0.0,VALID,99.425,VALID,0.0,VALID,24.415,VALID,177.0,VALID,1.348,
2011-07-28, 02:32:04,VALID,1008.727,VALID,0.0,VALID,99.333,VALID,0.0,VALID,24.435,VALID,175.0,VALID,0.904,
2011-07-28, 02:33:04,VALID,1008.735,VALID,0.0,VALID,99.287,VALID,0.0,VALID,24.396,VALID,180.0,VALID,0.708,
2011-07-28, 02:34:04,VALID,1008.728,VALID,0.0,VALID,99.501,VALID,0.0,VALID,24.415,VALID,172.0,VALID,1.311,
2011-07-28, 02:35:04,VALID,1008.723,VALID,0.0,VALID,99.425,VALID,0.0,VALID,24.433,VALID,197.0,VALID,0.875,
2011-07-28, 02:36:04,VALID,1008.742,VALID,0.0,VALID,99.12,VALID,0.0,VALID,24.474,VALID,183.0,VALID,0.717,
2011-07-28, 02:37:04,VALID,1008.751,VALID,0.0,VALID,99.15,VALID,0.0,VALID,24.433,VALID,173.0,VALID,0.561,
2011-07-28, 02:38:04,VALID,1008.773,VALID,0.0,VALID,99.051,VALID,0.0,VALID,24.454,VALID,154.0,VALID,0.993,
2011-07-28, 02:39:04,VALID,1008.746,VALID,0.0,VALID,99.013,VALID,0.0,VALID,24.435,VALID,190.0,VALID,0.938,
2011-07-28, 02:40:04,VALID,1008.751,VALID,0.0,VALID,99.287,VALID,0.106,VALID,24.454,VALID,189.0,VALID,1.467,
2011-07-28, 02:41:04,VALID,1008.771,VALID,0.0,VALID,99.104,VALID,0.106,VALID,24.454,VALID,148.0,VALID,1.215,
2011-07-28, 02:42:04,VALID,1008.746,VALID,0.0,VALID,99.074,VALID,0.0,VALID,24.454,VALID,191.0,VALID,0.87,
2011-07-28, 02:43:04,VALID,1008.728,VALID,0.0,VALID,99.219,VALID,0.0,VALID,24.433,VALID,155.0,VALID,1.654,
2011-07-28, 02:44:04,VALID,1008.726,VALID,0.0,VALID,99.127,VALID,0.0,VALID,24.474,VALID,183.0,VALID,1.353,
2011-07-28, 02:45:04,VALID,1008.724,VALID,0.0,VALID,99.043,VALID,0.106,VALID,24.472,VALID,179.0,VALID,1.008,
2011-07-28, 02:46:04,VALID,1008.722,VALID,0.0,VALID,98.929,VALID,0.106,VALID,24.512,VALID,189.0,VALID,1.392,
2011-07-28, 02:47:04,VALID,1008.758,VALID,0.0,VALID,98.853,VALID,0.0,VALID,24.493,VALID,153.0,VALID,0.88,
2011-07-28, 02:48:04,VALID,1008.749,VALID,0.0,VALID,98.837,VALID,0.0,VALID,24.472,VALID,167.0,VALID,0.776,
2011-07-28, 02:49:04,VALID,1008.704,VALID,0.0,VALID,98.944,VALID,0.0,VALID,24.474,VALID,165.0,VALID,1.396,
2011-07-28, 02:50:04,VALID,1008.709,VALID,0.0,VALID,99.043,VALID,0.106,VALID,24.474,VALID,194.0,VALID,1.93,
2011-07-28, 02:51:04,VALID,1008.672,VALID,0.0,VALID,98.944,VALID,0.0,VALID,24.474,VALID,176.0,VALID,1.265,
2011-07-28, 02:52:04,VALID,1008.68,VALID,0.0,VALID,98.975,VALID,0.106,VALID,24.493,VALID,182.0,VALID,1.13,
2011-07-28, 02:53:04,VALID,1008.649,VALID,0.0,VALID,98.845,VALID,0.0,VALID,24.512,VALID,191.0,VALID,0.755,
2011-07-28, 02:54:04,VALID,1008.647,VALID,0.0,VALID,98.898,VALID,0.0,VALID,24.512,VALID,169.0,VALID,1.893,
2011-07-28, 02:55:04,VALID,1008.663,VALID,0.0,VALID,98.792,VALID,0.106,VALID,24.491,VALID,163.0,VALID,0.748,
2011-07-28, 02:56:04,VALID,1008.665,VALID,0.0,VALID,98.815,VALID,0.106,VALID,24.491,VALID,183.0,VALID,1.348,
2011-07-28, 02:57:04,VALID,1008.663,VALID,0.0,VALID,98.731,VALID,0.106,VALID,24.493,VALID,196.0,VALID,0.902,
2011-07-28, 02:58:04,VALID,1008.695,VALID,0.0,VALID,98.898,VALID,0.106,VALID,24.433,VALID,180.0,VALID,1.474,
2011-07-28, 02:59:04,VALID,1008.674,VALID,0.0,VALID,98.906,VALID,0.106,VALID,24.413,VALID,168.0,VALID,0.769,
2011-07-28, 03:00:04,VALID,1008.683,VALID,0.0,VALID,99.112,VALID,0.0,VALID,24.394,VALID,198.0,VALID,0.858,
2011-07-28, 03:01:04,VALID,1008.684,VALID,0.0,VALID,99.226,VALID,0.106,VALID,24.435,VALID,167.0,VALID,1.642,
2011-07-28, 03:02:04,VALID,1008.678,VALID,0.0,VALID,99.066,VALID,0.0,VALID,24.433,VALID,168.0,VALID,1.154,
2011-07-28, 03:03:04,VALID,1008.687,VALID,0.0,VALID,99.051,VALID,0.0,VALID,24.413,VALID,186.0,VALID,1.149,
2011-07-28, 03:04:04,VALID,1008.677,VALID,0.0,VALID,99.043,VALID,0.106,VALID,24.435,VALID,182.0,VALID,0.834,
2011-07-28, 03:05:04,VALID,1008.661,VALID,0.0,VALID,99.127,VALID,0.0,VALID,24.435,VALID,178.0,VALID,1.654,
2011-07-28, 03:06:04,VALID,1008.669,VALID,0.0,VALID,99.165,VALID,0.0,VALID,24.435,VALID,173.0,VALID,1.148,
2011-07-28, 03:07:04,VALID,1008.674,VALID,0.0,VALID,99.15,VALID,0.0,VALID,24.394,VALID,191.0,VALID,1.334,
2011-07-28, 03:08:05,VALID,1008.682,VALID,0.0,VALID,99.234,VALID,0.0,VALID,24.435,VALID,185.0,VALID,1.485,
2011-07-28, 03:09:05,VALID,1008.675,VALID,0.0,VALID,99.28,VALID,0.0,VALID,24.415,VALID,186.0,VALID,1.39,
2011-07-28, 03:10:05,VALID,1008.668,VALID,0.0,VALID,99.272,VALID,0.0,VALID,24.415,VALID,191.0,VALID,1.259,
2011-07-28, 03:11:05,VALID,1008.674,VALID,0.0,VALID,99.341,VALID,0.0,VALID,24.415,VALID,185.0,VALID,1.16,
2011-07-28, 03:12:05,VALID,1008.677,VALID,0.0,VALID,99.226,VALID,0.0,VALID,24.396,VALID,190.0,VALID,0.978,
2011-07-28, 03:13:05,VALID,1008.681,VALID,0.0,VALID,99.447,VALID,0.0,VALID,24.376,VALID,185.0,VALID,1.777,
2011-07-28, 03:14:05,VALID,1008.658,VALID,0.0,VALID,99.44,VALID,0.0,VALID,24.376,VALID,171.0,VALID,1.765,
2011-07-28, 03:15:05,VALID,1008.641,VALID,0.0,VALID,99.47,VALID,0.0,VALID,24.376,VALID,188.0,VALID,1.891,
2011-07-28, 03:16:05,VALID,1008.643,VALID,0.0,VALID,99.44,VALID,0.0,VALID,24.396,VALID,173.0,VALID,1.953,
2011-07-28, 03:17:05,VALID,1008.623,VALID,0.0,VALID,99.364,VALID,0.106,VALID,24.415,VALID,168.0,VALID,1.379,
2011-07-28, 03:18:05,VALID,1008.655,VALID,0.0,VALID,99.348,VALID,0.0,VALID,24.376,VALID,190.0,VALID,1.064,
2011-07-28, 03:19:05,VALID,1008.635,VALID,0.0,VALID,99.501,VALID,0.106,VALID,24.376,VALID,175.0,VALID,2.131,
2011-07-28, 03:20:05,VALID,1008.659,VALID,0.0,VALID,99.539,VALID,0.106,VALID,24.335,VALID,188.0,VALID,2.061,
2011-07-28, 03:21:05,VALID,1008.635,VALID,0.0,VALID,99.569,VALID,0.0,VALID,24.337,VALID,182.0,VALID,1.514,
2011-07-28, 03:22:05,VALID,1008.647,VALID,0.0,VALID,99.714,VALID,0.106,VALID,24.318,VALID,171.0,VALID,1.642,
2011-07-28, 03:23:05,VALID,1008.644,VALID,0.0,VALID,99.783,VALID,0.0,VALID,24.277,VALID,176.0,VALID,1.253,
2011-07-28, 03:24:05,VALID,1008.626,VALID,0.0,VALID,99.791,VALID,0.0,VALID,24.279,VALID,170.0,VALID,1.021,
2011-07-28, 03:25:05,VALID,1008.602,VALID,0.0,VALID,100.004,VALID,0.0,VALID,24.279,VALID,176.0,VALID,1.792,
2011-07-28, 03:26:05,VALID,1008.626,VALID,0.0,VALID,100.058,VALID,0.106,VALID,24.279,VALID,172.0,VALID,2.097,
2011-07-28, 03:27:05,VALID,1008.619,VALID,0.0,VALID,100.035,VALID,0.106,VALID,24.257,VALID,178.0,VALID,1.242,
2011-07-28, 03:28:05,VALID,1008.622,VALID,0.0,VALID,100.058,VALID,0.106,VALID,24.238,VALID,177.0,VALID,1.893,
2011-07-28, 03:29:05,VALID,1008.62,VALID,0.0,VALID,100.103,VALID,0.106,VALID,24.238,VALID,203.0,VALID,1.329,
2011-07-28, 03:30:05,VALID,1008.625,VALID,0.0,VALID,100.111,VALID,0.0,VALID,24.24,VALID,159.0,VALID,2.502,
2011-07-28, 03:31:05,VALID,1008.62,VALID,0.0,VALID,100.18,VALID,0.0,VALID,24.24,VALID,180.0,VALID,1.956,
2011-07-28, 03:32:05,VALID,1008.604,VALID,0.0,VALID,100.164,VALID,0.0,VALID,24.22,VALID,191.0,VALID,1.341,
2011-07-28, 03:33:05,VALID,1008.6,VALID,0.0,VALID,100.248,VALID,0.0,VALID,24.22,VALID,186.0,VALID,1.62,
2011-07-28, 03:34:05,VALID,1008.6,VALID,0.0,VALID,100.279,VALID,0.106,VALID,24.24,VALID,161.0,VALID,1.919,
2011-07-28, 03:35:05,VALID,1008.553,VALID,0.0,VALID,100.164,VALID,0.106,VALID,24.24,VALID,161.0,VALID,1.676,
2011-07-28, 03:36:05,VALID,1008.566,VALID,0.0,VALID,100.233,VALID,0.106,VALID,24.199,VALID,162.0,VALID,1.469,
2011-07-28, 03:37:05,VALID,1008.552,VALID,0.0,VALID,100.309,VALID,0.0,VALID,24.22,VALID,170.0,VALID,2.225,
2011-07-28, 03:38:05,VALID,1008.529,VALID,0.0,VALID,100.271,VALID,0.0,VALID,24.201,VALID,157.0,VALID,1.388,
2011-07-28, 03:39:05,VALID,1008.488,VALID,0.0,VALID,100.317,VALID,0.106,VALID,24.201,VALID,184.0,VALID,1.929,